Weather History for KARV - October, 2012

Change the Weather History Date:

Sunday, October 7, 2012

  Actual Average (KRHI) Record (KRHI)
Temperature  
Mean Temperature 37 °F 47 °F  
Max Temperature 46 °F 57 °F 83 °F (2007)
Min Temperature 28 °F 36 °F 19 °F (1953)
Degree Days  
Heating Degree Days 28 18  
Month to date heating degree days 121  
Since 1 July heating degree days 553  
Cooling Degree Days 0 0  
Month to date cooling degree days 0  
Year to date cooling degree days 259  
Moisture  
Dew Point 22 °F    
Average Humidity 58    
Maximum Humidity 93    
Minimum Humidity 31    
Precipitation  
Precipitation 0.00 in 0.11 in 1.26 in (1950)
Month to date precipitation 0.83  
Year to date precipitation 25.91  
Snow  
Snow 0.00 in - 2.00 in (2000)
Month to date snowfall  
Since 1 July snowfall  
Since 1 September snowfall  
Snow Depth -    
Sea Level Pressure  
Sea Level Pressure 30.03 in    
Wind  
Wind Speed 4 mph (WSW)    
Max Wind Speed 14 mph    
Max Gust Speed 23 mph    
Visibility 10 miles    
Events      
T = Trace of Precipitation, MM = Missing Value Source: NWS Daily Summary

Daily Weather History Graph

Daily Weather History Graph

Search for Another Location

Airport or City:

Trip Planner

Search our weather history database for the weather conditions in past years. The results will help you decide how hot, cold, wet, or windy it might be!

Date:

Astronomy

Oct. 07, 2012 Rise Set
Actual Time 7:05 AM CDT 6:26 PM CDT
Civil Twilight 6:35 AM CDT 6:56 PM CDT
Nautical Twilight 6:01 AM CDT 7:30 PM CDT
Astronomical Twilight 5:26 AM CDT 8:05 PM CDT
Moon 11:25 PM CDT (10/7) 1:56 PM CDT (10/7)
Length of Visible Light 12h 20m
Length of Day
11h 20m
Waning Gibbous, 56% of the Moon is Illuminated
Oct 7
Waning Gibbous
Oct 8
Last Quarter
Oct 15
New
Oct 21
First Quarter
Oct 29
Full

Hourly Weather History & Observations

Time (CDT) Temp. Windchill Dew Point Humidity Pressure Visibility Wind Dir Wind Speed Gust Speed Precip Events Conditions
12:15 AM 35.6 °F 32.8 °F 28.4 °F 75% 30.13 in 10.0 mi West 3.5 mph - N/A   Overcast
12:35 AM 35.6 °F - 28.4 °F 75% 30.13 in 10.0 mi Calm Calm - N/A   Overcast
12:55 AM 35.6 °F - 28.4 °F 75% 30.13 in 10.0 mi Calm Calm - N/A   Overcast
1:15 AM 35.6 °F - 28.4 °F 75% 30.13 in 10.0 mi Calm Calm - N/A   Overcast
1:35 AM 35.6 °F - 28.4 °F 75% 30.13 in 10.0 mi Calm Calm - N/A   Overcast
1:55 AM 33.8 °F 30.8 °F 28.4 °F 81% 30.12 in 10.0 mi West 3.5 mph - N/A   Overcast
2:15 AM 35.6 °F 32.8 °F 28.4 °F 75% 30.12 in 10.0 mi West 3.5 mph - N/A   Overcast
2:35 AM 35.6 °F 31.7 °F 28.4 °F 75% 30.12 in 10.0 mi West 4.6 mph - N/A   Mostly Cloudy
2:55 AM 35.6 °F - 28.4 °F 75% 30.11 in 10.0 mi Calm Calm - N/A   Overcast
3:15 AM 35.6 °F - 28.4 °F 75% 30.11 in 10.0 mi Calm Calm - N/A   Scattered Clouds
3:55 AM 32.0 °F - 26.6 °F 80% 30.10 in 10.0 mi Calm Calm - N/A   Clear
4:15 AM 32.0 °F - 26.6 °F 80% 30.10 in 10.0 mi Calm Calm - N/A   Clear
4:35 AM 32.0 °F - 26.6 °F 80% 30.10 in 10.0 mi Calm Calm - N/A   Clear
4:55 AM 30.2 °F - 26.6 °F 86% 30.10 in 10.0 mi Calm Calm - N/A   Clear
5:15 AM 30.2 °F - 24.8 °F 80% 30.10 in 10.0 mi Calm Calm - N/A   Clear
5:35 AM 30.2 °F - 26.6 °F 86% 30.09 in 10.0 mi Calm Calm - N/A   Clear
5:55 AM 28.4 °F - 24.8 °F 86% 30.09 in 10.0 mi Calm Calm - N/A   Clear
6:15 AM 28.4 °F - 24.8 °F 86% 30.09 in 10.0 mi Calm Calm - N/A   Clear
6:35 AM 28.4 °F - 23.0 °F 80% 30.09 in 10.0 mi Calm Calm - N/A   Clear
6:55 AM 28.4 °F - 23.0 °F 80% 30.09 in 10.0 mi Calm Calm - N/A   Clear
7:15 AM 28.4 °F - 23.0 °F 80% 30.09 in 10.0 mi Calm Calm - N/A   Clear
7:35 AM 28.4 °F - 26.6 °F 93% 30.09 in 10.0 mi Calm Calm - N/A   Clear
7:55 AM 30.2 °F - 26.6 °F 86% 30.09 in 10.0 mi Calm Calm - N/A   Clear
8:15 AM 32.0 °F - 28.4 °F 87% 30.09 in 10.0 mi Calm Calm - N/A   Clear
8:35 AM 32.0 °F - 28.4 °F 87% 30.08 in 10.0 mi Calm Calm - N/A   Clear
8:55 AM 35.6 °F 31.7 °F 30.2 °F 81% 30.08 in 10.0 mi WSW 4.6 mph - N/A   Clear
9:15 AM 35.6 °F 29.9 °F 28.4 °F 75% 30.08 in 10.0 mi WSW 6.9 mph - N/A   Clear
9:35 AM 37.4 °F 33.8 °F 28.4 °F 70% 30.07 in 10.0 mi WSW 4.6 mph - N/A   Clear
9:55 AM 39.2 °F 32.5 °F 26.6 °F 61% 30.07 in 10.0 mi West 10.4 mph - N/A   Clear
10:15 AM 41.0 °F 35.2 °F 26.6 °F 57% 30.07 in 10.0 mi WSW 9.2 mph 18.4 mph N/A   Clear
10:35 AM 41.0 °F 33.9 °F 23.0 °F 49% 30.06 in 10.0 mi WSW 12.7 mph 18.4 mph N/A   Clear
10:55 AM 41.0 °F 33.5 °F 23.0 °F 49% 30.06 in 10.0 mi West 13.8 mph 19.6 mph N/A   Clear
11:15 AM 41.0 °F 34.3 °F 23.0 °F 49% 30.06 in 10.0 mi West 11.5 mph 17.3 mph N/A   Clear
11:35 AM 41.0 °F 34.3 °F 23.0 °F 49% 30.05 in 10.0 mi WSW 11.5 mph - N/A   Clear
11:55 AM 42.8 °F 37.5 °F 23.0 °F 46% 30.04 in 10.0 mi West 9.2 mph - N/A   Clear
12:15 PM 42.8 °F 36.6 °F 19.4 °F 39% 30.04 in 10.0 mi WSW 11.5 mph 19.6 mph N/A   Clear
12:35 PM 44.6 °F 38.4 °F 19.4 °F 37% 30.03 in 10.0 mi WSW 12.7 mph 19.6 mph N/A   Clear
12:55 PM 44.6 °F 38.1 °F 19.4 °F 37% 30.02 in 10.0 mi SW 13.8 mph 21.9 mph N/A   Clear
1:35 PM 44.6 °F 39.2 °F 17.6 °F 34% 30.01 in 10.0 mi WSW 10.4 mph 18.4 mph N/A   Scattered Clouds
1:55 PM 44.6 °F 39.2 °F 15.8 °F 31% 30.00 in 10.0 mi WSW 10.4 mph 23.0 mph N/A   Scattered Clouds
2:15 PM 44.6 °F 39.7 °F 17.6 °F 34% 29.99 in 10.0 mi WSW 9.2 mph 23.0 mph N/A   Scattered Clouds
2:35 PM 46.4 °F 41.9 °F 19.4 °F 34% 29.99 in 10.0 mi WSW 9.2 mph 23.0 mph N/A   Scattered Clouds
2:55 PM 44.6 °F 38.4 °F 17.6 °F 34% 29.99 in 10.0 mi SW 12.7 mph 19.6 mph N/A   Mostly Cloudy
3:15 PM 46.4 °F 41.1 °F 17.6 °F 32% 29.98 in 10.0 mi West 11.5 mph 19.6 mph N/A   Scattered Clouds
3:35 PM 46.4 °F 41.5 °F 17.6 °F 32% 29.98 in 10.0 mi West 10.4 mph 18.4 mph N/A   Clear
3:55 PM 46.4 °F 42.4 °F 17.6 °F 32% 29.96 in 10.0 mi WSW 8.1 mph 19.6 mph N/A   Scattered Clouds
4:15 PM 44.6 °F 39.2 °F 17.6 °F 34% 29.96 in 10.0 mi WSW 10.4 mph 17.3 mph N/A   Clear
4:35 PM 44.6 °F 40.2 °F 17.6 °F 34% 29.96 in 10.0 mi West 8.1 mph 17.3 mph N/A   Clear
4:55 PM 44.6 °F 38.4 °F 17.6 °F 34% 29.96 in 10.0 mi WSW 12.7 mph - N/A   Clear
5:15 PM 44.6 °F 38.8 °F 17.6 °F 34% 29.95 in 10.0 mi West 11.5 mph 19.6 mph N/A   Clear
5:35 PM 44.6 °F 39.2 °F 17.6 °F 34% 29.95 in 10.0 mi WSW 10.4 mph - N/A   Clear
5:55 PM 42.8 °F 38.0 °F 17.6 °F 36% 29.95 in 10.0 mi WSW 8.1 mph - N/A   Clear
6:15 PM 42.8 °F 38.6 °F 15.8 °F 34% 29.95 in 10.0 mi SW 6.9 mph - N/A   Clear
6:35 PM 41.0 °F 38.0 °F 15.8 °F 36% 29.94 in 10.0 mi SW 4.6 mph - N/A   Clear
6:55 PM 41.0 °F 39.0 °F 17.6 °F 39% 29.95 in 10.0 mi SSW 3.5 mph - N/A   Clear
7:15 PM 37.4 °F 33.8 °F 17.6 °F 45% 29.95 in 10.0 mi SSW 4.6 mph - N/A   Clear
7:35 PM 37.4 °F 33.8 °F 17.6 °F 45% 29.96 in 10.0 mi SSW 4.6 mph - N/A   Clear
7:55 PM 37.4 °F 34.9 °F 17.6 °F 45% 29.96 in 10.0 mi SW 3.5 mph - N/A   Clear
8:15 PM 37.4 °F - 19.4 °F 48% 29.96 in 10.0 mi Calm Calm - N/A   Clear
8:35 PM 35.6 °F - 17.6 °F 48% 29.96 in 10.0 mi Calm Calm - N/A   Clear
8:55 PM 35.6 °F - 19.4 °F 52% 29.96 in 10.0 mi Calm Calm - N/A   Clear
9:15 PM 35.6 °F 32.8 °F 19.4 °F 52% 29.96 in 10.0 mi SSW 3.5 mph - N/A   Clear
9:35 PM 32.0 °F 27.5 °F 19.4 °F 60% 29.95 in 10.0 mi SSW 4.6 mph - N/A   Clear
9:55 PM 35.6 °F 30.7 °F 19.4 °F 52% 29.95 in 10.0 mi SSW 5.8 mph - N/A   Clear
10:15 PM 35.6 °F 29.9 °F 19.4 °F 52% 29.94 in 10.0 mi SSW 6.9 mph - N/A   Clear
10:35 PM 35.6 °F 29.9 °F 19.4 °F 52% 29.94 in 10.0 mi SSW 6.9 mph - N/A   Clear
10:55 PM 35.6 °F 29.9 °F 19.4 °F 52% 29.93 in 10.0 mi SSW 6.9 mph - N/A   Clear
11:15 PM 35.6 °F 29.9 °F 19.4 °F 52% 29.93 in 10.0 mi SSW 6.9 mph - N/A   Clear
11:35 PM 35.6 °F 29.9 °F 19.4 °F 52% 29.93 in 10.0 mi SSW 6.9 mph - N/A   Clear
11:55 PM 35.6 °F 30.7 °F 19.4 °F 52% 29.92 in 10.0 mi SSW 5.8 mph - N/A   Clear